Location: Devils Tower National Monument
(44.5904°N, 104.7201°W)
Time: 20:58:06
(UTC-07:00)

N. Korean satellite - Visible Passes

Search period start: 26 January 2020 00:00
Search period end: 05 February 2020 00:00
Orbit: 454 x 507 km, 97.2° (Epoch: 26 January)

Date Brightness Start Highest point End Pass type
(mag) Time Alt. Az. Time Alt. Az. Time Alt. Az.
26 Jan 10.2 04:39:28 10° ENE 04:40:10 10° E 04:40:53 10° E visible
26 Jan 6.6 06:10:22 10° N 06:13:51 53° WNW 06:17:23 10° SSW visible
27 Jan 6.8 05:44:48 10° NNE 05:48:23 70° ESE 05:52:00 10° S visible
27 Jan 9.8 17:56:35 10° SW 17:58:42 16° W 18:00:51 10° NW visible
28 Jan 8.4 05:19:33 10° NNE 05:22:50 32° E 05:26:08 10° SSE visible
28 Jan 8.7 17:29:58 10° SSW 17:33:02 31° W 17:36:09 10° NNW visible
29 Jan 9.6 04:54:47 10° NE 04:57:11 17° E 04:59:37 10° SE visible
29 Jan 7.2 06:27:24 10° N 06:30:40 33° WNW 06:33:57 10° SW visible
30 Jan 6.5 06:01:39 10° N 06:05:15 70° WNW 06:08:53 10° SSW visible
31 Jan 7.3 05:36:11 10° NNE 05:39:44 54° E 05:43:20 10° S visible
31 Jan 9.6 17:47:25 10° SW 17:49:58 20° W 17:52:34 10° NW visible
01 Feb 8.9 05:11:03 10° NE 05:14:09 26° E 05:17:17 10° SSE visible
01 Feb 7.8 06:44:35 10° NNW 06:47:25 22° WNW 06:50:16 10° WSW visible
02 Feb 9.9 04:46:33 10° ENE 04:48:28 14° E 04:50:24 10° ESE visible
02 Feb 6.9 06:18:36 10° N 06:22:03 42° WNW 06:25:32 10° SW visible
03 Feb 6.5 05:52:56 10° NNE 05:56:36 89° W 06:00:17 10° SSW visible
03 Feb 10.0 18:05:23 10° WSW 18:06:56 12° W 18:08:29 10° WNW visible
04 Feb 7.9 05:27:34 10° NNE 05:31:04 42° E 05:34:35 10° S visible
04 Feb 9.3 17:38:20 10° SSW 17:41:13 25° W 17:44:09 10° NW visible
